Location: Bas-Clignon
(44.2000°N, 6.6333°E)
Time: 07:35:38
(UTC+00:00)

Cosmos 1844 - Pass Details

Date: 03 February 2023
Orbit: 822 x 868 km, 70.9° (Epoch: 26 March)

Event Time Altitude Azimuth Distance (km) Brightness Sun altitude
Rises 17:56:35 0° 336° (NNW) 3,463 7.1 -13.0°
Reaches altitude 10° 17:59:06 10° 340° (NNW) 2,522 6.3 -13.5°
Maximum altitude 18:04:52 62° 61° (ENE) 969 3.7 -14.5°
Drops below altitude 10° 18:10:33 10° 142° (SE) 2,491 5.9 -15.5°
Sets 18:13:01 0° 146° (SE) 3,418 6.6 -15.9°
